Hourly Data Report for May 18, 2003

TORONTO CITY
ONTARIO

43°40'00.000" N
79°24'00.000" W
112.50 m
6158355
71508
XTO

Download Data

Hourly Data (May 2003)
Hourly Data Report for May 18, 2003
TIME
LST
Temp Definition
°C
Dew Point Definition
°C
Rel Hum Definition
%
Precip. Amount Definition
mm

Wind Dir Definition
10's deg

Wind Spd Definition
km/h
Visibility Definition
km
Stn Press Definition
kPa
Hmdx Definition


Wind Chill Definition


Weather Definition


00:00 11.9 6.8 71   LegendMM LegendMM LegendMM 101.02     LegendNANA
01:00 11.6 7.1 74   LegendMM LegendMM LegendMM 100.98     LegendNANA
02:00 11.7 7.6 76   LegendMM LegendMM LegendMM 100.98     LegendNANA
03:00 11.6 8.3 80   LegendMM LegendMM LegendMM 101.02     LegendNANA
04:00 11.6 8.6 82   LegendMM LegendMM LegendMM 101.04     LegendNANA
05:00 11.5 8.5 82   LegendMM LegendMM LegendMM 101.07     LegendNANA
06:00 11.5 8.7 83   LegendMM LegendMM LegendMM 101.18     LegendNANA
07:00 12.5 9.2 80   LegendMM LegendMM LegendMM 101.22     LegendNANA
08:00 14.5 10.1 75   LegendMM LegendMM LegendMM 101.22     LegendNANA
09:00 16.1 10.2 68   LegendMM LegendMM LegendMM 101.20     LegendNANA
10:00 16.2 10.1 67   LegendMM LegendMM LegendMM 101.19     LegendNANA
11:00 16.9 11.0 68   LegendMM LegendMM LegendMM 101.17     LegendNANA
12:00 16.4 10.3 67   LegendMM LegendMM LegendMM 101.14     LegendNANA
13:00 17.7 10.3 62   LegendMM LegendMM LegendMM 101.11     LegendNANA
14:00 18.1 8.4 53   LegendMM LegendMM LegendMM 101.08     LegendNANA
15:00 18.6 4.8 40   LegendMM LegendMM LegendMM 101.05     LegendNANA
16:00 18.5 1.9 33   LegendMM LegendMM LegendMM 101.01     LegendNANA
17:00 17.7 2.9 37   LegendMM LegendMM LegendMM 100.99     LegendNANA
18:00 17.7 4.3 41   LegendMM LegendMM LegendMM 100.96     LegendNANA
19:00 17.7 2.9 37   LegendMM LegendMM LegendMM 100.96     LegendNANA
20:00 17.5 1.9 35   LegendMM LegendMM LegendMM 101.02     LegendNANA
21:00 17.4 1.0 33   LegendMM LegendMM LegendMM 101.06     LegendNANA
22:00 16.9 0.1 32   LegendMM LegendMM LegendMM 101.06     LegendNANA
23:00 13.3 2.5 48   LegendMM LegendMM LegendMM 101.11     LegendNANA

Notes on Data Quality.

Legend

  • E = Estimated
  • M = Missing
  • NA = Not Available*
  • [empty] = Indicates an unobserved value
Date modified: